User: anonymous   Login
Location: Caltech
(34.1382°N, 118.1253°W)
Time: 05:20:45
(UTC-07:00)
Language:

Cosmos 1626 - Orbit

View from above orbital plane
View from above orbital plane
View from above satellite
View from above satellite

Ground track
Ground track

The orbit data is extracted from the following two-line orbital elements,

1 15494U 85009A   17267.16180077  .00001049  00000-0  43709-4 0  9999
2 15494  82.4808 150.6581 0003969  73.8046 286.3627 15.22625667783831
Epoch (UTC): 24 September 2017 03:52:59
Eccentricity: 0.0003969
inclination: 82.4808°
perigee height: 495 km
apogee height: 500 km
right ascension of ascending node: 150.6581°
argument of perigee: 73.8046°
revolutions per day: 15.22625667
mean anomaly at epoch: 286.3627°
orbit number at epoch: 78383

The dashed part of the orbit path shows where the satellite is in the earth's shadow,  

DLR